Vertical_Velocity
29 5 -2 -0 -1 6 11 11 -16 -7 -1 -3 -10 -6 7 -1 5 3 6 5 2 -4 -1 -0 0 -0 1 5 2 1 5 -0 -2 1 -3 -3 -2 -0 0 1 0 0 0
3 -6 -11 -12 5 5 12 7 4 5 13 -3 -6 10 21 -3 7 -0 -2 -1 -1 -5 -4 -4 -1 1 1 -3 -1 1 -1 -0 -1 0 5 -1 -1 -1 -1 -0 -1 -1 -0
-5 -1 -5 4 -9 -3 -0 5 -2 -9 8 2 -10 4 13 -3 -3 2 10 9 1 0 0 -2 -1 2 0 3 2 3 1 2 -1 -4 4 -3 -2 0 -1 -0 -1 -1 -0
-7 11 -6 -4 -5 -11 -4 9 3 7 4 26 -16 21 -11 -6 12 1 2 5 1 -1 4 2 -1 1 -1 -1 4 5 4 -1 5 -1 -3 -1 6 2 -3 -0 -1 -2 -0
-10 -0 -2 -10 -9 -1 -4 3 5 3 19 -11 137 3 10 13 2 1 -1 8 5 -1 2 4 0 -3 -1 1 2 -2 -3 -0 -2 5 2 -0 -1 -2 -1 2 1 0 1
-9 5 5 -4 -6 -13 -6 -5 -4 11 8 13 57 58 3 -3 23 -24 -5 2 5 3 -2 5 0 -1 -0 1 2 -2 1 3 4 -1 1 4 5 6 3 0 -1 -1 1
-13 -6 6 -3 -1 -7 -8 -3 3 4 23 -13 46 5 17 7 5 -11 -5 -5 -8 -5 -5 -2 -6 -3 2 1 5 4 -1 0 2 3 3 1 -1 -2 0 -3 1 4 1
-7 -15 2 -6 -8 1 -26 -6 -4 2 15 -30 10 47 1 27 -10 -6 -16 -6 -7 2 -1 3 2 -1 -1 -1 2 2 1 -0 -0 -0 0 -1 1 2 2 2 4 1 1
0 -13 2 -5 -6 -3 -11 -4 2 15 5 -8 -4 12 -15 5 -12 15 -5 16 -9 5 5 -4 0 3 -0 5 1 1 -1 -1 -2 -2 -1 1 1 0 1 1 3 2 1
-2 -13 0 4 -3 -15 -9 -2 -0 -2 4 -3 9 -8 20 -4 3 19 92 -36 6 2 -1 6 -3 2 0 -1 3 1 -1 1 -1 -3 -1 1 -1 2 1 2 2 2 -0
1 -1 1 -3 -6 0 -14 7 1 -1 -14 -10 -0 -30 -20 -1 -5 6 -27 17 -2 -1 3 7 3 5 0 -1 0 4 3 1 1 -0 2 -1 1 2 2 0 1 2 -0
-0 -1 2 -12 -5 -12 3 4 -2 0 4 6 4 20 29 7 28 39 31 -22 25 15 9 -1 4 4 6 -0 -4 4 0 -1 1 3 1 1 -1 0 0 1 1 0 0
2 2 -1 11 12 3 5 -7 -7 -2 -10 -3 9 4 14 -9 -10 -12 11 -5 -4 25 0 -2 1 -2 1 -0 3 2 -1 2 3 5 3 3 -1 -0 2 3 5 2 0
8 14 4 10 7 7 3 17 -4 -17 5 -2 2 -10 12 -1 8 5 -2 28 -6 42 -0 25 2 2 1 2 9 1 -4 3 2 1 1 1 3 0 1 3 3 1 -2
11 1 15 9 8 3 7 7 -17 -2 10 -2 -13 3 41 8 -2 28 14 18 2 4 5 25 10 -0 -5 5 2 3 -4 4 6 1 -0 1 -2 1 -1 0 3 0 0
10 2 12 -10 1 10 -11 2 -0 -3 1 5 -8 -7 -14 44 25 -16 -7 12 -8 -10 1 9 6 -12 9 5 1 9 -1 5 4 5 -1 5 -3 0 -1 1 4 1 1
11 4 11 3 -2 -4 3 3 0 -5 -1 -11 -4 -1 1 3 -6 -3 9 1 15 -5 5 3 -8 14 12 -8 11 6 3 4 5 2 1 3 -5 1 -2 3 0 3 2
15 23 1 8 7 2 -1 -14 -13 4 -3 3 -11 -8 -8 13 21 34 10 2 4 3 -7 3 11 -7 -3 2 1 11 7 4 1 4 -4 -9 2 3 1 4 -2 -2 -0
-0 5 3 3 4 6 6 4 -5 -3 -6 -6 9 -2 -6 4 -25 -7 -2 -11 1 4 5 0 4 -0 3 -6 -7 -8 -0 3 -1 -1 -4 -2 0 2 7 3 -4 1 3
8 18 10 1 16 6 26 6 2 0 -6 -6 -14 -3 -2 3 6 3 4 5 14 13 1 -1 5 -2 3 -2 3 2 -1 4 -12 -11 -3 -2 4 -2 2 -1 1 -1 2
0 -3 33 -7 2 13 -2 38 26 -4 7 15 -7 3 1 5 1 -3 8 5 7 14 -0 5 10 2 -4 1 1 7 -7 -7 -5 -6 -2 0 -2 6 -0 0 -0 1 -2
7 -5 14 8 11 39 0 2 6 5 6 7 -11 1 -1 -6 -5 1 8 2 -1 -0 -2 2 1 5 6 6 4 4 3 -2 4 -4 5 3 3 1 2 -4 -0 6 2
-19 21 22 21 24 10 10 16 4 -5 -0 -2 -8 13 -0 -1 12 2 3 -18 -11 20 -14 3 3 -5 -8 -0 2 -6 3 -0 0 -1 6 6 5 1 -2 1 -0 1 3
5 6 7 -4 0 22 2 73 41 19 11 10 7 15 -4 5 -6 -7 11 2 50 -11 -4 -14 4 -1 1 7 7 3 11 -3 8 6 1 -2 -2 6 -1 -5 9 -1 -0
5 3 -2 24 9 3 -4 -11 -5 4 3 7 -1 10 -3 1 -0 9 -10 -4 8 3 4 6 4 7 5 10 4 9 1 -2 3 10 -4 1 -2 -6 9 4 2 3 1
3 15 5 -5 7 19 -2 26 7 12 -2 3 1 -6 1 8 -11 8 -3 -7 -3 -2 -7 -1 4 -7 -8 3 2 9 6 2 1 2 3 -4 7 5 2 6 8 4 5
Height
2960 2958 2961 2971 2981 2990 3000 3010 3021 3030 3039 3046 3054 3064 3069 3076 3087 3095 3101 3108 3114 3119 3125 3130 3134 3142 3148 3154 3158 3163 3169 3172 3176 3179 3181 3185 3188 3191 3193 3195 3197 3199 3201
2950 2948 2950 2957 2966 2975 2988 2999 3011 3023 3031 3038 3048 3058 3064 3071 3082 3091 3097 3103 3108 3115 3120 3126 3130 3136 3143 3149 3154 3160 3164 3170 3174 3178 3182 3184 3188 3189 3192 3194 3196 3198 3200
2943 2942 2942 2946 2953 2963 2976 2986 2999 3010 3018 3030 3041 3049 3057 3067 3075 3082 3089 3094 3101 3110 3119 3125 3128 3134 3140 3146 3151 3157 3162 3168 3172 3175 3181 3183 3186 3189 3191 3193 3195 3197 3199
2935 2932 2931 2934 2942 2950 2962 2975 2989 2998 3009 3016 3028 3033 3035 3047 3061 3073 3083 3090 3096 3105 3113 3120 3125 3131 3137 3142 3150 3155 3161 3166 3172 3174 3178 3182 3187 3188 3190 3193 3194 3196 3197
2928 2925 2925 2926 2930 2938 2949 2963 2976 2986 2993 3004 2990 3024 3028 3042 3055 3067 3079 3086 3091 3098 3106 3113 3120 3127 3134 3140 3147 3152 3158 3164 3168 3174 3178 3181 3184 3186 3189 3192 3193 3195 3196
2917 2915 2916 2918 2921 2927 2938 2952 2964 2975 2984 2994 2983 3002 3021 3032 3041 3058 3070 3078 3085 3091 3100 3108 3115 3123 3130 3137 3144 3149 3155 3161 3165 3170 3175 3179 3183 3187 3189 3190 3191 3193 3194
2901 2901 2904 2908 2911 2919 2927 2939 2952 2964 2975 2987 2975 3002 3013 3027 3034 3046 3060 3069 3076 3084 3095 3103 3109 3117 3125 3133 3139 3146 3151 3157 3163 3167 3171 3176 3179 3183 3186 3188 3190 3191 3192
2888 2886 2889 2893 2900 2910 2918 2929 2942 2958 2969 2983 2986 2992 3005 3017 3027 3039 3051 3062 3073 3085 3093 3101 3107 3114 3121 3129 3136 3142 3148 3153 3158 3163 3167 3172 3176 3181 3184 3186 3188 3189 3190
2877 2874 2876 2879 2890 2899 2910 2926 2936 2951 2962 2972 2983 2990 2999 3010 3020 3033 3046 3058 3071 3079 3088 3097 3103 3110 3117 3125 3131 3138 3143 3149 3154 3160 3164 3169 3173 3177 3181 3183 3185 3186 3187
2870 2866 2863 2870 2882 2892 2903 2916 2931 2947 2958 2969 2980 2983 2992 3006 3017 3026 3028 3050 3064 3074 3083 3091 3099 3106 3113 3120 3126 3132 3138 3144 3150 3155 3160 3165 3170 3174 3177 3180 3182 3183 3185
2865 2862 2862 2866 2875 2887 2900 2918 2932 2943 2958 2968 2977 2984 2991 3003 3012 3023 3028 3046 3057 3069 3078 3086 3093 3101 3108 3115 3121 3128 3134 3140 3145 3151 3157 3162 3167 3171 3174 3177 3179 3180 3181
2864 2863 2864 2870 2874 2884 2897 2916 2930 2943 2956 2967 2976 2983 2987 2995 3007 3021 3031 3036 3050 3063 3074 3081 3089 3097 3103 3110 3117 3124 3129 3135 3141 3147 3152 3158 3163 3167 3170 3173 3174 3176 3178
2864 2862 2865 2869 2876 2889 2899 2911 2927 2940 2953 2965 2974 2981 2989 2997 3005 3013 3023 3035 3042 3052 3067 3076 3084 3092 3100 3107 3113 3120 3126 3131 3137 3144 3149 3154 3159 3163 3167 3169 3171 3172 3173
2862 2860 2866 2870 2877 2886 2904 2916 2928 2942 2953 2964 2973 2978 2987 2996 3003 3012 3018 3028 3038 3042 3060 3068 3079 3087 3096 3103 3108 3114 3120 3127 3133 3139 3145 3150 3155 3159 3163 3165 3166 3167 3170
2863 2864 2868 2872 2880 2891 2903 2914 2932 2943 2953 2961 2970 2977 2984 2992 3001 3006 3016 3025 3030 3039 3052 3060 3070 3082 3090 3097 3103 3109 3115 3122 3129 3134 3139 3145 3150 3153 3156 3159 3162 3164 3165
2865 2867 2870 2877 2882 2892 2904 2921 2931 2943 2954 2962 2971 2979 2984 2987 2997 3005 3011 3019 3026 3036 3044 3055 3062 3071 3080 3091 3098 3105 3111 3118 3124 3129 3134 3139 3144 3148 3152 3155 3156 3159 3160
2868 2871 2876 2882 2891 2901 2910 2921 2933 2945 2954 2963 2971 2977 2980 2989 2994 3003 3008 3014 3024 3033 3042 3051 3058 3062 3072 3082 3091 3098 3105 3112 3118 3123 3128 3134 3139 3144 3147 3150 3152 3154 3156
2870 2873 2881 2888 2897 2906 2914 2922 2935 2947 2953 2960 2969 2976 2983 2986 2996 3002 3009 3015 3023 3028 3036 3043 3050 3057 3065 3075 3083 3090 3097 3104 3110 3117 3123 3127 3134 3138 3142 3145 3147 3149 3151
2884 2883 2887 2892 2900 2909 2917 2926 2937 2947 2955 2964 2969 2977 2981 2987 2993 3001 3006 3012 3019 3023 3029 3037 3043 3049 3056 3065 3071 3081 3089 3095 3104 3111 3117 3123 3127 3132 3136 3139 3141 3144 3145
2887 2884 2886 2897 2905 2913 2919 2930 2940 2949 2957 2963 2971 2978 2983 2989 2994 3000 3006 3012 3017 3022 3028 3034 3041 3048 3055 3061 3067 3073 3080 3088 3097 3104 3110 3116 3121 3126 3130 3133 3135 3137 3139
2896 2895 2892 2903 2911 2920 2926 2927 2941 2952 2959 2965 2975 2979 2984 2990 2994 2999 3004 3010 3015 3021 3028 3036 3043 3048 3052 3059 3064 3071 3080 3086 3092 3098 3105 3112 3116 3122 3125 3128 3131 3132 3132
2908 2908 2905 2911 2914 2921 2929 2938 2945 2952 2960 2967 2973 2979 2982 2989 2995 2999 3004 3010 3016 3022 3029 3035 3040 3048 3053 3058 3064 3072 3079 3085 3092 3099 3102 3107 3112 3117 3120 3123 3125 3124 3126
2913 2910 2909 2914 2919 2928 2938 2945 2951 2958 2963 2970 2977 2983 2988 2990 2994 3000 3008 3013 3019 3023 3031 3035 3042 3048 3054 3059 3064 3071 3078 3082 3089 3094 3098 3102 3108 3112 3114 3116 3117 3119 3120
2923 2920 2920 2925 2929 2935 2938 2940 2953 2960 2967 2972 2978 2982 2989 2992 2997 3001 3008 3013 3019 3027 3032 3039 3043 3048 3054 3058 3063 3069 3075 3081 3085 3090 3095 3100 3103 3105 3108 3109 3111 3113 3114
2931 2930 2933 2934 2939 2944 2945 2952 2958 2963 2968 2972 2978 2983 2989 2994 2998 3002 3011 3017 3021 3027 3034 3040 3045 3049 3053 3059 3063 3068 3073 3078 3082 3087 3091 3094 3098 3100 3103 3105 3105 3105 3107
2939 2938 2940 2943 2944 2944 2951 2953 2960 2963 2968 2974 2979 2985 2990 2994 2999 3005 3008 3013 3018 3026 3033 3038 3044 3048 3054 3057 3061 3065 3069 3075 3078 3081 3084 3089 3092 3094 3096 3098 3099 3101 3102